Regional Weather Roundup
Issued by NWS

Home | Current Version | Previous Version | Graphics & Text | Print | Product List | Glossary On
Versions: 1 2 3 4 5 6 7 8 9 10 11 12 13 14 15 16 17 18 19 20 21 22 23 24 25 26 27 28 29 30 31 32 33 34 35 36 37 38 39 40 41 42 43 44 45 46 47 48 49 50
000
ASUS45 KSLC 311710
RWRUT

UTAH REGIONAL WEATHER ROUNDUP
NATIONAL WEATHER SERVICE SALT LAKE CITY UT
1100 AM MDT THU JUL 31 2014

UTZ001>011-023>025-311800-

NORTHERN UTAH

CITY           SKY/WX    TMP DP  RH WIND       PRES   REMARKS
HILL AFB       MOSUNNY   72  50  45 E9        30.23S
LOGAN          SUNNY     69  53  56 W5        30.25S
OGDEN          MOSUNNY   76  49  38 NW5       30.21S
PROVO AIRPORT  MOSUNNY   72  55  56 S5        30.23S
SALT LAKE CITY MOSUNNY   78  53  41 N6        30.19S
VERNAL         SUNNY     72  48  42 CALM      30.27F
WENDOVER       SUNNY     79  50  36 NE12      30.21S
HEBER CITY     SUNNY     66  52  59 CALM      30.30S
WEST JORDAN    SUNNY     75  61  60 CALM      30.22S

$$

UTZ012>022-026-027-311800-

SOUTHERN UTAH

CITY           SKY/WX    TMP DP  RH WIND       PRES   REMARKS
BRYCE CANYON   SUNNY     73  48  41 W7        30.38S
CEDAR CITY     MOSUNNY   78  50  37 N7        30.25S
MILFORD        MOSUNNY   80  52  37 N12       30.22S
MOAB/CYNLANDS  SUNNY     78  54  43 VRB5      30.17S
PRICE          MOSUNNY   77  43  29 NE8       30.27S
ST GEORGE      SUNNY     90  48  24 SW3       30.05F
KANAB            N/A     84  45  24 CALM      30.21F

$$

REGIONAL REPORTS     COLORADO/ARIZONA

CITY           SKY/WX    TMP DP  RH WIND       PRES   REMARKS
CRAIG, CO      MOSUNNY   60  54  80 W3        30.31F
GRAND JUNCTION SUNNY     74  56  53 CALM      30.20S
RIFLE          MOSUNNY   72  54  53 VRB3      30.25F
MONTROSE       SUNNY     74  56  53 SW6       30.27S
CORTEZ         MOSUNNY   79  53  40 CALM      30.26R
PAGE, AZ       MOSUNNY   87  50  27 CALM      30.13S
GRAND CANYON   MOSUNNY   80  46  30 VRB6      30.31S
KINGMAN        MOSUNNY   92  47  21 CALM      30.07S
FLAGSTAFF      PTSUNNY   78  47  33 W3        30.35R

$$

REGIONAL REPORTS    NEVADA/IDAHO/WYOMING

CITY           SKY/WX    TMP DP  RH WIND       PRES   REMARKS
LAS VEGAS, NV  MOSUNNY   96  48  19 CALM      29.93S HX  92
ELY            CLOUDY    68  50  52 W7        30.33R
ELKO           MOSUNNY   76  48  37 CALM      30.24S
POCATELLO, ID  SUNNY     78  49  35 NE7       30.25S
BURLEY         SUNNY     79  51  37 E13       30.20S
EVANSTON, WY   MOSUNNY   64  47  53 NE13G18   30.39S
ROCK SPRINGS   SUNNY     66  47  50 CALM      30.38S

$$



USA.gov is the U.S. government's official web portal to all federal, state and local government web resources and services.